Prince George Airport Aut, British Columbia

12:49 PM PDT on September 28, 2016 (GMT -0700)
Prince George

Weather History for CYXS - February, 2013

Change the Weather History Date:

Saturday, February 9, 2013

  Actual Average Record
Temperature  
Mean Temperature 30 °F -  
Max Temperature 39 °F 28 °F 42 °F (2016)
Min Temperature 21 °F 13 °F -21 °F (2014)
Degree Days  
Heating Degree Days 35    
Moisture  
Dew Point 26 °F    
Average Humidity 90    
Maximum Humidity 100    
Minimum Humidity 57    
Precipitation  
Precipitation 0.00 in - - ()
Sea Level Pressure  
Sea Level Pressure 30.25 in    
Wind  
Wind Speed 7 mph ()    
Max Wind Speed 14 mph    
Max Gust Speed -    
Visibility 6.8 miles    
Events Fog    
Averages and records for this station are not official NWS values.
T = Trace of Precipitation, MM = Missing Value Source: Averaged Metar Reports

Daily Weather History Graph

Daily Weather History Graph

Search for Another Location

Airport or City:

Trip Planner

Search our weather history database for the weather conditions in past years. The results will help you decide how hot, cold, wet, or windy it might be!

Date:

Astronomy

Feb. 09, 2013 Rise Set
Actual Time 7:41 AM PST 5:09 PM PST
Civil Twilight 7:04 AM PST 5:46 PM PST
Nautical Twilight 6:22 AM PST 6:28 PM PST
Astronomical Twilight 5:41 AM PST 7:09 PM PST
Moon 6:54 AM PST (2/9) 5:04 PM PST (2/9)
Length of Visible Light 10h 42m
Length of Day
9h 27m
Waning Crescent, 0% of the Moon is Illuminated
Feb 9
Waning Crescent
Feb 9
New
Feb 17
First Quarter
Feb 25
Full
Mar 4
Last Quarter

Hourly Weather History & Observations

Time (PST) Temp. Windchill Dew Point Humidity Pressure Visibility Wind Dir Wind Speed Gust Speed Precip Events Conditions
12:00 AM 32.0 °F 22.1 °F 32.0 °F 100% 30.09 in 9.0 mi South 13.8 mph - N/A   Overcast
1:00 AM 32 °F - 31 °F 95% 30.10 in 10 mi South 13.8 mph - -   Overcast
1:00 AM 32.0 °F 22.5 °F 30.2 °F 93% 30.09 in 9.0 mi South 12.7 mph - N/A   Overcast
1:28 AM 32.0 °F 22.5 °F 30.2 °F 93% 30.10 in 9.0 mi South 12.7 mph - N/A   Overcast
2:00 AM 32.0 °F 23.6 °F 30.2 °F 93% 30.11 in 9.0 mi South 10.4 mph - N/A   Overcast
2:15 AM 32.0 °F 24.8 °F 30.2 °F 93% 30.12 in 9.0 mi South 8.1 mph - N/A   Overcast
2:43 AM 32.0 °F 23.0 °F 32.0 °F 100% 30.12 in 9.0 mi South 11.5 mph - N/A   Overcast
3:00 AM 32.0 °F 23.6 °F 30.2 °F 93% 30.13 in 9.0 mi South 10.4 mph - N/A   Overcast
4:00 AM 32 °F - 31 °F 93% 30.13 in 10 mi South 10.4 mph - -   Overcast
4:00 AM 32.0 °F 23.0 °F 30.2 °F 93% 30.13 in 9.0 mi South 11.5 mph - N/A   Overcast
5:00 AM 30.2 °F 23.4 °F 30.2 °F 100% 30.14 in 9.0 mi SSE 6.9 mph - N/A   Overcast
6:00 AM 33.8 °F 27.0 °F 28.4 °F 81% 30.14 in 9.0 mi WNW 8.1 mph - N/A   Overcast
7:00 AM 35 °F - 29 °F 71% 30.15 in 10 mi WNW 10.4 mph - -   Overcast
8:00 AM 33.8 °F 27.0 °F 28.4 °F 81% 30.17 in 9.0 mi WNW 8.1 mph - N/A   Overcast
9:00 AM 30.2 °F - 28.4 °F 93% 30.19 in 9.0 mi Variable 2.3 mph - N/A   Partly Cloudy
10:00 AM 33 °F - 28 °F 77% 30.21 in 10 mi SSE 2.3 mph - -  
10:00 AM 32.0 °F - 28.4 °F 87% 30.21 in 9.0 mi Variable 2.3 mph - N/A   Mostly Cloudy
11:00 AM 33.8 °F 30.8 °F 28.4 °F 81% 30.23 in 9.0 mi SSE 3.5 mph - N/A   Partly Cloudy
12:00 PM 37.4 °F 32.8 °F 28.4 °F 70% 30.23 in 9.0 mi Variable 5.8 mph - N/A   Clear
1:00 PM 38 °F - 29 °F 60% 30.23 in 10 mi NW 4.6 mph - -  
1:00 PM 37.4 °F 33.8 °F 28.4 °F 70% 30.23 in 9.0 mi WNW 4.6 mph - N/A   Clear
2:00 PM 39.2 °F 35.9 °F 28.4 °F 65% 30.24 in 9.0 mi West 4.6 mph - N/A   Partly Cloudy
3:00 PM 37.4 °F 33.8 °F 28.4 °F 70% 30.25 in 9.0 mi West 4.6 mph - N/A   Clear
4:00 PM 37 °F - 27 °F 57% 30.27 in 10 mi WSW 6.9 mph - -  
4:00 PM 37.4 °F 32.8 °F 26.6 °F 65% 30.26 in 9.0 mi WSW 5.8 mph - N/A   Clear
5:00 PM 33.8 °F - 26.6 °F 75% 30.28 in 9.0 mi South 2.3 mph - N/A   Mostly Cloudy
6:00 PM 28.4 °F 24.6 °F 26.6 °F 93% 30.28 in 9.0 mi SSW 3.5 mph - N/A   Partly Cloudy
7:00 PM 28 °F - 26 °F 89% 30.29 in 10 mi SW 3.5 mph - -  
7:00 PM 28.4 °F - 26.6 °F 93% 30.29 in 9.0 mi SSW 2.3 mph - N/A   Clear
8:00 PM 24.8 °F - 23.0 °F 93% 30.30 in 9.0 mi Calm Calm - N/A   Clear
8:57 PM 24.8 °F 20.5 °F 24.8 °F 100% 30.31 in 7.0 mi SSW 3.5 mph - N/A   Scattered Clouds
9:00 PM 24.8 °F 19.1 °F 24.8 °F 100% 30.32 in 7.0 mi SSW 4.6 mph - N/A   Scattered Clouds
9:15 PM 21.2 °F 16.4 °F 21.2 °F 100% 30.33 in 2.5 mi SSE 3.5 mph - N/A   Mostly Cloudy
9:16 PM 21.2 °F 16.4 °F 19.4 °F 93% 30.33 in 1.5 mi SSE 3.5 mph - N/A   Scattered Clouds
9:20 PM 21.2 °F 16.4 °F 19.4 °F 93% 30.33 in 0.5 mi SSE 3.5 mph - N/A Fog Light Freezing Fog
9:21 PM 21.2 °F 16.4 °F 19.4 °F 93% 30.33 in 0.4 mi South 3.5 mph - N/A Fog Light Freezing Fog
9:22 PM 21.2 °F 16.4 °F 19.4 °F 93% 30.33 in 0.4 mi South 3.5 mph - N/A Fog Light Freezing Fog
9:27 PM 21.2 °F 16.4 °F 21.2 °F 100% 30.32 in 0.5 mi SSW 3.5 mph - N/A Fog Light Freezing Fog
9:29 PM 21.2 °F 14.9 °F 21.2 °F 100% 30.32 in 0.6 mi SSW 4.6 mph - N/A   Partly Cloudy
9:33 PM 23.0 °F 18.4 °F 21.2 °F 93% 30.32 in 2.2 mi SSW 3.5 mph - N/A   Partly Cloudy
9:35 PM 23.0 °F 18.4 °F 23.0 °F 100% 30.32 in 3.0 mi SSW 3.5 mph - N/A   Clear
9:38 PM 23.0 °F 18.4 °F 23.0 °F 100% 30.32 in 6.0 mi SW 3.5 mph - N/A   Clear
9:42 PM 23.0 °F 17.0 °F 23.0 °F 100% 30.32 in 4.0 mi WSW 4.6 mph - N/A   Clear
9:46 PM 23.0 °F 17.0 °F 21.2 °F 93% 30.33 in 6.0 mi SW 4.6 mph - N/A   Clear
10:00 PM 25 °F - 24 °F 94% 30.33 in 10 mi SSW 3.5 mph - -  
10:00 PM 24.8 °F 20.5 °F 23.0 °F 93% 30.32 in 9.0 mi SSW 3.5 mph - N/A   Clear
10:37 PM 23.0 °F 18.4 °F 21.2 °F 93% 30.32 in 5.0 mi SSW 3.5 mph - N/A   Clear
10:52 PM 23.0 °F 18.4 °F 23.0 °F 100% 30.32 in 2.2 mi SSW 3.5 mph - N/A   Clear
10:58 PM 24.8 °F - 23.0 °F 93% 30.32 in 3.0 mi SSW 2.3 mph - N/A   Clear
11:00 PM 24.8 °F 20.5 °F 23.0 °F 93% 30.32 in 4.0 mi South 3.5 mph - N/A   Clear
11:11 PM 24.8 °F 20.5 °F 23.0 °F 93% 30.32 in 6.0 mi SSW 3.5 mph - N/A   Clear
11:12 PM 24.8 °F 20.5 °F 23.0 °F 93% 30.32 in 5.0 mi South 3.5 mph - N/A   Clear
11:14 PM 23.0 °F 18.4 °F 23.0 °F 100% 30.32 in 2.5 mi SSW 3.5 mph - N/A   Partly Cloudy
11:15 PM 23.0 °F 18.4 °F 23.0 °F 100% 30.32 in 1.8 mi SW 3.5 mph - N/A   Partly Cloudy
11:35 PM 24.8 °F 20.5 °F 24.8 °F 100% 30.32 in 4.0 mi SSW 3.5 mph - N/A   Partly Cloudy
11:36 PM 24.8 °F 20.5 °F 24.8 °F 100% 30.32 in 9.0 mi SW 3.5 mph - N/A   Partly Cloudy